Home   Weather   Laval   Past weeks

Flag for Canada Past Weather in Laval, Quebec, Canada — Yesterday and Last 2 Weeks

Now
64 °F

Partly sunny.


Feels Like: 64 °F
Forecast: 59 / 80 °F
Wind: 3 mph from Southwest

Location: Montreal / Mirabel

Current Time: Aug 30, 2016 at 11:07:30 AM

Latest Report: Aug 30, 2016 at 10:00 AM


Visibility: 45 mi

Pressure: 30.14 "Hg

Humidity: 83%

Dew Point: 59 °F

Location of LavalLocation

Past Weather in Laval — Graph

°F

Laval Temperature Yesterday

Maximum temperature yesterday: 77 °F (at 5:00 PM)
Minimum temperature yesterday: 61 °F (at 7:00 AM)
Average temperature yesterday: 69 °F

High & Low Weather Summary for the Past Weeks

 TemperatureHumidityPressure
High82 °F (Aug 20, 2:00 PM)100% (Aug 16, 1:00 AM)30.26 "Hg (Aug 16, 1:00 AM)
Low52 °F (Aug 23, 6:00 AM)42% (Aug 26, 3:00 PM)29.69 "Hg (Aug 21, 5:00 PM)
Average69 °F79%30.02 "Hg
* Reported Aug 15 10:00 AM — Aug 30 10:00 AM, Laval, Weather by CustomWeather, © 2016

Note: Actual official high and low records may vary slightly from our data, if they occured in-between our weather recording intervals... More about our weather records

Advertising

Laval Weather History for the Previous 24 Hours

Scroll right to see more
 ConditionsComfort  
Time TempWeatherWind HumidityBarometerVisibility
10:00 AM
Tue, Aug 30
64 °FPartly sunny.3 mph83%30.14 "Hg45 mi
9:00 AM61 °FPartly sunny.6 mph94%30.15 "Hg45 mi
8:00 AM61 °FPartly sunny.3 mph88%30.16 "Hg35 mi
7:00 AM57 °FPartly cloudy.3 mph94%30.16 "Hg45 mi
6:00 AM55 °FPassing clouds.2 mph100%30.16 "Hg45 mi
5:00 AM57 °FPassing clouds.5 mph94%30.15 "Hg25 mi
4:00 AM54 °FPassing clouds.5 mph100%30.16 "Hg25 mi
3:00 AM54 °FPassing clouds.2 mph100%30.16 "Hg25 mi
2:00 AM54 °FPassing clouds.No wind100%30.16 "Hg25 mi
1:00 AM57 °FPartly cloudy.2 mph94%30.17 "Hg25 mi
12:00 AM55 °FPassing clouds.2 mph100%30.18 "Hg25 mi
11:00 PM
Mon, Aug 29
61 °FPassing clouds.No wind83%30.18 "Hg25 mi
10:00 PM63 °FPassing clouds.3 mph77%30.19 "Hg25 mi
9:00 PM64 °FPartly cloudy.2 mph78%30.18 "Hg25 mi
8:00 PM68 °FScattered clouds.3 mph69%30.17 "Hg25 mi
7:00 PM72 °FScattered clouds.5 mph61%30.16 "Hg45 mi
6:00 PM75 °FScattered clouds.5 mph57%30.16 "Hg45 mi
5:00 PM77 °FScattered clouds.7 mph51%30.16 "Hg45 mi
4:00 PM75 °FScattered clouds.8 mph50%30.17 "Hg45 mi
3:00 PM75 °FPassing clouds.6 mph47%30.16 "Hg45 mi
2:00 PM75 °FScattered clouds.8 mph50%30.17 "Hg45 mi
1:00 PM73 °FPassing clouds.7 mph50%30.16 "Hg45 mi
12:00 PM70 °FPassing clouds.12 mph57%30.18 "Hg45 mi
11:00 AM72 °FScattered clouds.12 mph57%30.18 "Hg45 mi
Weather by CustomWeather, © 2016

See weather overviewHow to use our weather pages